Location: Berlin
(52.5200°N, 13.4050°E)
Time: 20:08:39
(UTC+02:00)

LES 1 - Pass Details

Date: 12 August 2020
Orbit: 2779 x 2808 km, 32.1° (Epoch: 28 June)

Event Time Altitude Azimuth Distance (km) Brightness Sun altitude
Rises 14:46:23 0° 257° (WSW) 6,582 12.7 47.8°
Reaches altitude 10° 14:51:10 10° 248° (WSW) 5,559 12.7 47.3°
Maximum altitude 15:04:19 33° 192° (SSW) 3,972 12.5 46.1°
Drops below altitude 10° 15:17:28 10° 135° (SE) 5,550 12.0 44.7°
Sets 15:22:16 0° 127° (SE) 6,570 12.2 44.2°
